RH
29 33 38 44 49 53 56 57 59 59 59 60 60 60 60 59 57 56 55 54 52 51 49 46 43 41 40 38 36 34 32 31 29 27 26 24 22 21 19 18 17 16 15 15 14 14 14 14 14 14 14 15 15 15 16 17 17 18 19 19 20 20 20 20 20 21 21 21 22 22 22 22 22 22 22 22 23 23 22 22 22 22 22 22 22 22 21 21
26 25 25 25 26 27 29 31 33 35 36 37 39 40 41 42 43 46 49 52 53 53 51 49 47 46 45 43 42 39 36 33 30 28 26 24 21 20 18 17 17 16 15 15 15 14 14 14 14 14 14 14 14 15 15 16 16 17 17 18 18 17 17 18 18 19 19 20 20 20 21 21 21 22 21 21 21 21 21 21 21 21 21 21 21 21 20 20
26 25 24 23 23 22 21 21 21 20 20 20 21 22 23 23 25 30 37 45 50 53 54 54 53 52 50 48 45 41 36 32 29 26 23 21 20 19 18 17 17 17 16 16 15 15 15 15 14 14 14 14 15 15 15 16 16 16 17 17 16 16 16 17 17 18 18 18 19 19 19 19 19 20 19 20 20 20 20 19 19 19 19 19 19 19 19 19
24 23 22 23 23 23 22 22 20 19 18 18 18 19 19 18 20 25 34 43 51 55 57 58 56 54 51 47 43 38 33 29 26 23 22 21 20 20 19 19 18 18 18 17 17 16 16 16 15 15 15 15 15 15 16 16 16 17 17 17 16 16 17 17 17 17 17 17 17 17 17 17 17 17 18 18 18 18 18 18 17 17 17 17 17 16 16 16
25 23 22 23 23 23 22 21 20 19 18 18 19 19 19 20 23 29 37 46 53 56 57 55 53 49 46 42 39 35 31 30 28 26 26 25 24 23 22 21 21 20 19 18 18 17 17 17 17 17 17 17 16 16 16 16 16 17 17 16 16 16 17 16 17 17 17 17 17 16 16 16 16 16 17 16 16 16 16 15 15 15 15 15 14 14 14 14
40 37 36 35 35 34 32 31 30 31 31 31 31 31 31 31 34 37 43 49 52 53 52 50 49 46 44 42 40 37 35 34 31 29 28 26 24 22 21 20 20 19 18 18 17 17 17 17 17 17 17 17 17 17 16 16 16 16 16 16 16 16 16 16 16 16 16 17 16 16 16 16 16 16 15 15 15 15 14 14 14 14 13 13 13 13 12 12
66 64 63 63 64 64 63 62 61 61 60 59 58 56 54 53 53 54 54 55 55 54 54 53 51 49 47 44 40 36 33 30 27 25 23 21 20 18 17 17 16 16 15 15 15 15 14 14 15 15 15 16 16 16 16 16 16 16 16 15 15 15 15 16 16 16 16 16 16 16 16 15 15 15 15 15 14 14 14 13 13 13 13 12 12 12 11 11
88 88 88 90 92 91 85 81 78 75 73 70 68 66 64 62 61 61 60 59 58 56 54 51 47 43 38 34 30 26 24 22 21 20 19 18 17 16 16 15 15 14 14 14 13 13 13 13 13 12 13 13 13 14 14 15 15 15 15 15 15 15 15 15 15 15 15 15 15 15 15 15 15 15 15 14 14 14 14 13 13 12 12 12 12 12 11 11
97 98 99 100 95 87 80 77 74 72 70 69 68 66 65 64 62 60 57 54 50 45 40 35 31 28 26 24 23 22 22 21 21 21 20 20 20 19 19 18 17 17 16 15 15 15 14 14 13 13 13 13 13 13 13 13 13 13 14 14 14 15 15 15 15 15 15 15 15 15 15 14 14 15 14 14 14 14 14 14 13 13 13 13 12 12 12 11
100 97 94 90 82 76 75 74 73 72 71 71 69 66 63 58 53 47 42 37 32 29 27 26 25 25 26 27 27 27 27 27 27 27 27 27 26 25 25 24 22 21 20 19 19 18 18 17 17 16 16 16 16 15 15 14 14 14 14 14 14 14 14 14 14 14 15 15 15 15 15 15 15 15 14 14 15 15 15 15 14 14 14 13 13 12 12 12
97 89 83 80 77 77 77 76 75 73 69 64 58 51 45 39 34 30 28 27 27 28 29 31 32 33 34 34 35 35 35 36 36 37 36 35 34 33 31 30 29 27 25 24 23 22 21 21 20 20 19 19 18 18 17 17 16 16 16 16 15 15 15 15 15 15 15 15 15 15 15 15 15 15 15 15 15 15 14 14 14 14 13 13 13 12 12 11
93 83 80 81 80 79 76 71 66 59 51 44 37 33 29 28 27 28 29 31 34 37 39 40 41 42 42 42 43 45 46 48 48 48 47 45 44 42 40 38 36 34 32 30 29 27 26 25 24 23 23 22 21 21 20 20 20 20 19 18 17 17 17 16 16 16 16 16 16 16 16 16 15 15 14 14 14 14 14 13 13 13 13 12 12 12 11 11
91 82 79 76 72 66 59 52 44 38 33 30 29 29 30 31 33 35 37 40 43 47 50 51 52 51 50 52 55 58 60 61 61 60 58 57 56 54 51 48 46 43 41 39 36 34 33 31 30 28 28 27 26 26 25 24 24 23 22 20 20 19 18 18 19 19 18 18 18 18 18 17 16 15 15 14 14 13 13 13 13 12 12 12 11 11 11 11
77 69 64 57 50 44 38 34 31 30 31 32 34 36 38 40 42 43 46 49 51 56 59 60 61 60 61 64 67 69 72 72 71 70 69 68 67 66 64 62 58 54 51 49 46 43 40 38 36 34 34 34 33 32 31 30 30 29 27 24 23 22 21 22 23 23 22 23 23 22 21 20 19 18 17 17 16 15 14 14 13 13 13 12 12 12 11 11
52 47 43 39 36 34 33 33 33 35 38 41 44 46 47 47 47 49 53 55 55 60 66 67 68 69 70 72 75 77 78 77 77 77 77 76 74 73 72 71 69 67 64 61 57 54 51 48 46 43 42 43 42 41 40 39 36 34 31 30 29 29 29 31 33 33 33 33 32 30 28 26 24 24 23 22 20 19 18 17 17 16 15 14 14 14 13 13
38 37 36 36 37 38 40 41 43 45 47 51 53 53 53 52 52 54 58 58 55 62 71 73 74 74 75 77 78 79 79 79 79 79 78 77 76 75 73 72 71 71 71 69 66 64 61 59 56 54 53 52 50 48 46 44 41 41 42 43 44 44 44 45 46 46 43 41 39 37 36 33 30 30 30 29 26 25 24 23 22 20 20 19 18 17 17 17
41 42 44 45 48 49 51 52 52 54 57 58 59 58 57 56 55 57 60 59 57 63 72 76 77 76 78 78 77 78 78 76 74 73 72 72 73 74 73 72 71 71 70 69 69 68 69 68 66 63 61 59 56 53 52 52 54 56 59 60 59 58 56 54 53 52 49 45 43 43 43 39 34 35 37 36 32 30 30 28 27 27 26 24 24 24 24 23
53 55 57 58 60 60 60 60 61 62 64 64 63 63 62 62 61 61 62 61 60 63 69 74 74 75 77 77 75 74 72 70 68 67 67 68 68 69 70 71 71 71 72 72 72 72 74 75 73 70 66 63 61 59 59 62 66 69 69 69 67 64 62 59 57 55 52 50 49 48 49 45 39 40 44 45 42 38 38 36 33 32 31 29 29 29 29 28
69 70 71 71 70 69 68 69 69 69 69 70 71 71 73 73 71 69 68 66 65 66 70 72 73 75 75 75 74 72 69 67 66 65 64 63 63 63 63 64 65 68 70 73 75 76 77 77 75 71 70 72 74 71 69 67 66 66 66 67 68 67 65 64 63 60 57 55 53 52 54 52 48 49 53 56 58 55 50 48 44 40 36 33 33 33 33 32
82 83 84 83 81 80 79 79 78 77 79 82 82 84 89 89 84 80 76 73 71 71 72 74 75 77 76 75 75 73 70 67 65 63 61 59 58 57 57 58 59 60 63 66 69 70 71 70 68 68 72 78 80 77 74 71 68 66 64 63 64 64 63 63 63 62 61 60 59 59 62 60 56 61 69 71 72 69 63 61 59 51 46 43 40 39 36 35
89 93 95 94 92 91 91 90 89 89 91 94 94 95 98 99 93 88 84 83 81 79 79 79 78 78 77 75 74 73 71 67 64 61 58 56 54 53 54 53 54 55 57 58 60 62 62 61 61 66 71 73 73 72 70 69 68 67 66 64 62 60 57 56 56 59 63 64 62 62 63 63 61 67 82 87 81 79 78 78 72 63 60 60 55 48 44 43
85 92 97 98 98 99 98 98 97 97 99 100 101 99 99 100 99 94 91 91 89 85 83 81 80 79 76 73 72 71 69 67 65 61 57 55 53 53 54 55 55 56 56 56 58 59 58 56 57 60 62 64 65 64 65 64 64 63 62 60 59 57 55 54 55 58 63 65 63 62 62 61 60 65 81 92 89 84 86 90 88 82 79 76 69 64 60 59
74 79 86 91 94 97 99 101 102 102 102 103 103 100 96 96 97 94 91 89 87 82 79 77 77 76 74 72 72 70 69 68 66 62 59 57 55 57 60 63 64 64 65 66 66 64 59 56 58 59 57 58 59 58 59 60 59 59 59 58 56 54 53 54 56 58 62 65 65 67 68 65 62 62 69 83 91 89 88 94 97 93 89 84 83 79 72 74
69 66 69 74 80 85 90 96 102 105 105 105 104 101 97 95 96 95 91 88 86 82 79 77 76 74 73 71 71 70 70 69 67 64 61 60 61 64 69 71 72 76 79 81 78 71 65 65 67 66 64 64 64 63 63 62 60 59 59 59 57 55 55 54 54 56 59 65 68 69 73 75 72 66 62 67 80 88 88 93 96 90 84 84 92 96 89 90
79 74 67 62 63 67 73 79 86 93 96 99 100 98 95 92 90 87 83 80 79 77 75 74 73 73 72 72 71 71 70 70 69 67 65 64 66 69 73 77 79 82 85 86 83 75 71 73 73 73 74 73 72 73 73 71 69 66 63 62 61 61 61 60 59 56 55 59 64 68 73 80 83 78 70 64 64 72 76 80 86 84 80 81 92 103 103 100
96 97 91 80 71 64 63 65 67 70 73 78 80 80 78 75 72 69 67 66 66 65 64 63 63 63 63 64 66 68 70 71 74 75 72 69 68 69 71 75 77 80 82 84 82 77 74 75 75 75 77 78 78 78 76 75 75 74 72 69 68 68 67 67 64 59 56 54 59 68 74 84 93 88 79 75 66 62 63 66 73 76 80 87 91 95 99 101
102 104 102 98 93 84 74 67 64 62 60 62 62 63 65 65 65 64 63 63 63 62 61 60 58 56 55 55 56 58 62 67 74 78 79 77 75 72 69 69 70 72 76 78 78 76 74 75 75 75 77 79 79 77 74 74 77 77 75 73 72 73 74 75 72 68 66 63 63 69 74 84 99 93 76 72 72 70 70 70 72 76 82 89 88 86 89 98
102 101 99 98 99 98 91 79 70 65 61 61 61 63 65 65 66 66 65 65 65 64 64 62 60 58 56 54 52 52 53 55 59 64 69 74 76 75 73 71 70 69 71 73 74 74 73 73 76 78 79 77 75 74 73 73 76 75 72 72 71 71 72 74 76 76 76 76 74 70 67 71 89 100 85 75 80 83 83 82 81 83 85 85 84 85 87 92
102 101 100 98 97 98 96 86 77 71 66 64 65 67 68 69 69 69 70 70 70 69 68 66 64 62 59 56 53 51 50 49 49 50 53 58 63 68 71 73 74 74 74 75 75 75 73 70 72 77 79 76 71 72 71 71 73 72 70 70 68 66 66 66 69 73 74 80 82 75 71 68 78 97 96 88 93 92 85 85 86 86 86 83 85 87 88 92
108 108 104 101 97 95 94 88 79 74 70 68 69 71 73 75 75 77 79 79 78 75 72 70 68 66 63 61 58 56 54 52 50 48 47 47 49 52 57 62 67 71 75 78 78 78 77 74 71 72 75 74 72 72 73 73 73 71 69 67 64 61 61 62 65 67 68 74 75 70 71 74 79 91 91 88 96 93 84 84 86 89 89 87 89 93 96 101
108 109 108 107 102 97 95 92 86 81 78 76 75 76 79 82 83 86 88 86 84 80 77 74 72 70 68 66 65 63 61 58 54 51 49 47 45 45 46 49 54 59 64 71 75 74 74 75 74 73 73 72 72 72 74 76 75 73 71 69 67 65 64 64 63 64 64 64 63 59 60 63 70 79 83 87 96 95 89 87 86 88 90 88 90 96 102 107
103 104 106 104 103 103 102 100 95 90 89 89 89 89 91 92 94 95 94 91 88 84 81 79 78 77 75 73 70 67 64 60 55 51 49 47 46 45 45 46 48 50 53 58 65 67 67 69 71 73 73 71 70 71 71 72 72 73 72 71 71 70 70 69 65 62 62 61 59 57 56 55 56 61 68 77 87 93 95 95 94 93 91 87 88 94 101 106
105 105 105 102 103 107 105 101 95 90 90 91 92 93 95 97 98 97 96 95 93 90 86 85 84 82 80 77 73 68 64 60 56 52 50 48 48 47 47 49 50 51 52 53 58 63 65 66 69 71 71 69 67 67 65 65 66 67 68 67 67 67 68 68 66 62 62 61 59 58 56 57 57 55 57 62 68 77 85 89 94 97 95 89 89 96 101 105
101 104 107 107 108 109 105 101 96 91 89 89 90 93 95 97 97 96 96 97 96 94 90 87 85 81 79 76 71 66 64 61 58 55 54 53 52 53 53 55 56 56 56 57 59 62 65 67 69 70 71 71 69 67 65 64 64 64 64 63 63 64 64 63 62 62 60 58 58 58 57 57 57 54 54 55 57 62 69 73 78 86 91 89 89 96 102 106
83 89 95 100 104 106 105 104 103 99 95 93 93 95 97 98 97 96 96 94 93 90 86 84 80 77 75 73 72 71 69 67 65 63 62 61 59 59 61 64 65 64 63 65 68 70 72 71 69 69 71 72 70 68 67 65 64 63 62 61 61 60 59 59 59 59 57 55 54 54 54 55 54 52 51 52 53 55 59 64 69 74 81 84 85 88 92 96
68 71 75 80 86 90 94 97 99 100 98 97 96 96 96 96 96 95 93 89 87 84 80 78 76 77 79 81 82 83 81 78 76 74 73 71 69 68 69 71 73 73 72 73 74 77 81 81 76 75 75 74 73 70 68 66 64 62 59 58 57 55 54 54 54 53 52 52 50 49 49 48 49 49 49 50 50 51 53 56 62 67 73 77 80 81 82 83
62 65 66 68 70 73 76 79 82 85 87 87 89 91 91 91 91 90 87 84 82 79 76 76 78 84 91 94 94 93 90 88 88 88 85 82 81 80 79 79 80 81 81 80 78 77 80 81 79 76 74 73 72 69 66 63 60 59 57 54 53 51 50 50 50 49 48 47 46 46 45 44 44 44 44 46 47 48 50 52 54 58 63 67 70 73 74 74
48 55 60 63 64 65 67 68 69 71 72 72 74 76 78 81 83 82 81 80 79 78 79 81 86 94 100 101 101 98 94 93 96 97 94 91 91 90 87 86 86 86 86 83 80 77 76 75 73 70 66 63 61 59 59 58 57 56 55 53 52 51 50 50 50 49 48 47 46 45 43 42 42 41 41 43 45 45 46 47 49 51 53 57 59 61 63 64
44 44 47 50 53 56 60 64 66 66 65 65 66 66 68 72 76 79 81 81 81 83 84 85 90 99 103 101 102 102 98 95 95 96 95 93 93 94 94 93 92 90 88 83 79 74 71 68 65 63 61 58 55 53 53 54 56 57 56 55 54 52 50 49 48 49 48 47 46 45 44 43 43 42 42 43 44 45 45 46 47 47 48 50 52 54 56 56
55 53 49 46 44 45 48 53 58 61 62 64 64 63 65 70 75 80 84 85 85 88 89 85 85 94 101 101 101 103 102 98 94 93 92 91 91 93 95 95 93 89 83 79 75 70 66 63 61 62 63 63 61 59 57 55 54 53 52 51 50 49 48 46 44 43 42 41 41 40 39 40 40 40 40 41 41 42 42 42 43 43 44 45 46 48 49 50
63 67 65 59 55 51 48 48 49 50 54 58 59 61 64 70 75 79 84 87 88 90 92 90 85 87 94 99 100 99 98 97 95 94 93 92 91 92 92 93 89 84 79 75 70 67 65 64 64 68 71 70 68 65 63 60 56 52 48 45 43 42 40 39 38 37 37 36 35 34 34 35 35 36 36 36 36 36 36 36 36 37 37 38 38 39 40 41
62 68 72 71 70 68 63 60 56 53 53 54 53 54 57 64 71 76 82 86 88 90 93 94 89 85 86 91 94 94 95 95 94 93 92 92 93 92 90 88 84 80 78 74 71 70 70 71 73 74 74 71 67 64 61 57 54 51 48 44 40 37 35 33 32 32 32 32 32 32 32 33 35 37 38 38 36 34 33 32 32 33 33 33 33 33 34 35
66 66 67 69 73 76 78 78 75 71 68 64 59 56 56 59 65 71 78 83 84 85 89 92 91 88 86 87 89 93 98 100 98 96 92 90 90 89 85 82 78 77 78 78 80 81 80 77 75 73 69 65 61 56 52 49 47 45 45 43 40 38 37 35 33 32 31 31 32 31 31 33 37 40 40 40 39 37 35 33 32 32 33 32 32 32 32 32
74 74 72 68 66 69 74 80 84 83 80 76 72 68 65 64 68 72 76 80 80 81 85 89 91 94 94 92 91 93 98 100 99 99 96 90 86 83 79 76 75 76 79 83 86 86 81 75 70 64 59 54 50 47 44 42 41 41 41 42 42 42 39 37 37 36 36 36 37 36 33 35 38 39 40 41 42 42 41 39 37 35 34 34 33 34 34 33
60 70 77 80 76 72 72 73 76 78 77 77 75 73 72 72 74 75 74 76 78 80 85 89 93 98 101 99 96 94 95 96 94 93 93 90 84 80 78 78 79 82 84 86 85 80 71 64 58 52 48 44 42 40 38 37 36 38 39 40 42 43 42 41 39 38 38 40 41 41 41 41 40 39 39 40 41 44 45 46 46 44 42 41 39 36 35 35
41 46 55 67 75 80 85 86 85 81 77 75 72 72 74 74 75 76 75 76 79 83 86 90 96 101 103 101 97 92 90 90 88 85 86 87 85 82 82 85 88 90 88 84 77 68 59 52 47 43 40 38 36 34 33 33 32 33 35 38 41 43 44 45 44 43 42 40 38 40 44 46 45 43 41 39 39 39 39 42 45 46 47 48 49 46 40 36
50 44 40 41 47 56 70 83 91 94 93 90 87 84 84 80 75 75 75 75 78 83 86 89 93 97 98 97 95 90 87 87 87 86 86 88 89 91 94 96 94 88 80 70 60 53 47 43 39 37 35 32 30 31 32 34 36 37 38 38 40 43 46 48 50 52 52 48 45 48 48 45 44 44 43 41 39 36 36 37 39 42 44 46 50 53 51 46
63 61 56 48 42 39 41 49 60 71 82 90 95 99 101 99 92 87 84 82 81 81 82 82 83 85 87 90 91 91 90 91 93 95 97 98 99 99 98 92 81 69 59 51 46 42 39 36 35 33 32 32 32 34 36 40 43 43 44 44 44 44 46 51 57 61 62 60 58 57 54 49 47 47 44 43 41 40 41 41 41 42 43 44 47 50 54 55
55 59 63 63 61 57 50 43 40 41 46 54 63 73 82 89 91 91 93 96 97 97 96 93 91 92 93 94 97 100 102 104 106 106 106 104 98 87 77 67 57 49 44 41 39 36 34 34 34 35 36 38 39 40 42 43 43 45 49 54 56 58 59 62 65 66 64 61 59 58 56 54 56 54 50 47 47 46 47 47 46 46 45 45 46 48 51 54
51 50 51 54 59 64 66 64 60 53 47 43 41 42 45 49 54 58 63 71 79 86 93 95 96 98 98 96 97 99 98 98 97 92 87 79 69 59 51 45 42 39 38 37 37 36 36 37 38 39 39 40 43 45 47 49 51 55 60 66 72 77 79 75 69 63 58 56 57 56 54 55 60 59 54 51 50 50 50 49 49 48 48 47 47 48 50 52
58 55 52 50 49 51 54 59 63 66 66 63 58 53 48 44 42 41 40 41 43 47 53 58 62 65 67 66 66 66 64 62 60 56 52 48 44 42 40 39 38 38 39 39 38 38 38 37 38 40 41 46 55 62 65 65 61 60 67 76 82 83 81 75 69 66 64 61 58 54 52 54 57 55 51 51 51 51 50 49 48 47 47 48 48 48 49 50
67 64 62 59 56 53 50 49 50 53 58 63 65 66 66 62 58 54 50 47 45 43 41 41 40 40 40 41 40 40 40 39 39 38 37 37 37 37 37 37 38 39 39 40 42 44 46 49 53 56 58 63 72 78 78 72 63 61 70 77 76 70 67 67 69 72 72 67 61 57 55 56 55 52 51 51 52 52 52 52 52 50 48 47 47 47 47 48
Wind_Speed
77 78 79 80 80 81 81 82 81 81 81 81 81 81 81 81 80 79 79 78 76 75 75 74 74 74 74 74 75 75 76 77 77 77 78 78 79 80 81 82 83 83 84 85 86 88 89 90 91 92 93 94 95 95 96 96 96 97 98 99 101 103 105 106 105 103 103 103 103 103 103 102 102 102 102 101 100 101 102 103 104 104 103 103 103 103 104 104
75 76 77 77 77 78 78 79 79 79 78 78 79 79 79 79 79 78 77 77 76 75 75 74 74 74 74 74 75 76 76 77 77 77 77 78 78 79 79 80 80 81 82 83 84 85 86 87 88 89 90 91 92 92 92 92 93 93 94 95 97 100 101 100 99 98 99 99 99 100 99 99 100 100 100 100 100 100 101 102 103 103 102 102 102 103 103 102
73 74 74 75 75 75 75 75 75 75 74 74 74 75 75 75 75 75 75 74 74 74 74 73 73 73 74 74 75 76 76 76 76 76 76 76 76 77 77 77 78 78 79 80 81 82 83 84 85 86 87 88 88 89 89 90 90 90 91 93 95 96 95 94 93 93 93 94 95 95 95 95 96 96 96 97 97 97 97 99 100 100 100 99 99 99 100 100
70 70 71 71 71 71 72 71 71 71 71 71 71 71 71 71 70 70 70 70 71 71 71 71 72 72 73 74 75 75 75 74 74 74 74 74 74 75 75 75 75 76 77 77 78 79 80 81 82 83 83 84 85 86 86 87 87 88 90 92 92 92 91 90 90 90 89 90 91 91 92 92 92 92 92 93 93 94 94 95 95 95 95 94 94 95 96 97
65 65 66 66 66 67 67 67 67 66 66 66 67 67 67 67 67 67 66 67 67 67 68 69 69 70 71 72 72 73 72 72 72 72 72 73 73 73 73 73 74 75 75 76 76 77 78 79 79 80 80 81 82 83 84 85 85 87 89 90 90 89 89 88 88 87 87 87 88 89 89 88 88 88 88 88 89 90 90 90 90 90 90 90 91 92 93 93
59 59 59 60 60 60 60 60 59 59 59 59 59 60 60 61 61 61 62 63 63 64 65 66 67 68 69 69 70 70 70 70 71 71 72 72 72 73 73 73 74 74 75 75 76 76 77 77 78 78 79 80 81 82 83 84 85 87 89 89 88 88 87 86 86 86 85 85 86 86 86 85 85 85 85 86 86 87 87 87 87 88 88 88 89 90 90 90
54 54 54 54 54 54 53 53 52 52 52 52 53 53 54 54 55 56 57 58 59 61 62 63 65 66 67 67 68 69 69 70 70 71 71 72 72 72 72 73 73 73 74 74 74 75 75 76 77 79 80 81 82 82 82 84 85 87 87 86 86 86 85 85 85 85 84 84 84 85 84 84 84 84 84 85 85 85 85 86 86 86 87 88 88 88 89 89
50 50 50 50 50 50 50 49 49 49 49 49 50 50 51 52 53 54 55 57 58 59 61 62 64 65 65 66 66 67 67 67 68 68 68 68 68 68 68 68 68 69 69 69 69 70 71 73 74 76 77 78 80 80 81 83 85 85 85 84 84 85 85 84 85 85 84 84 85 85 84 84 84 84 84 84 84 84 85 86 86 87 88 88 88 88 88 88
49 49 49 49 49 49 49 48 48 48 49 49 50 50 51 52 53 55 56 57 58 59 60 61 62 62 62 62 62 62 62 62 61 61 61 60 60 59 59 60 60 60 61 61 62 63 64 65 67 68 69 71 72 73 76 79 80 82 82 82 83 84 84 84 84 84 84 84 85 85 84 84 84 84 85 85 85 85 85 86 86 87 87 87 87 88 88 88
48 48 48 48 48 48 48 49 49 49 49 50 51 52 52 53 54 55 55 55 56 56 56 57 57 56 56 55 55 55 55 54 53 53 53 52 52 51 51 51 52 52 53 53 54 55 56 57 58 59 60 62 63 65 69 71 73 74 76 77 79 81 81 81 81 81 82 82 82 82 83 83 83 84 84 84 84 84 84 84 84 85 86 86 87 87 87 88
47 47 47 48 48 49 49 49 50 50 51 51 52 52 53 53 53 53 52 52 51 51 51 51 50 50 49 49 48 48 48 47 46 46 45 45 45 44 44 44 45 45 46 47 48 49 49 50 51 52 53 54 56 58 61 62 64 66 67 70 72 73 73 74 75 75 76 76 77 78 78 79 80 81 81 81 82 82 82 82 83 84 85 85 86 86 86 87
47 47 48 49 49 50 50 51 51 51 51 51 51 51 51 50 49 49 48 47 46 45 45 45 45 44 44 43 42 42 41 40 40 40 40 40 40 40 39 39 39 40 40 41 43 44 44 45 46 47 47 49 50 51 53 55 56 58 60 62 64 65 66 66 67 67 68 68 70 71 71 73 75 76 77 77 78 78 79 79 80 81 82 83 83 83 84 85
48 48 49 49 50 51 51 51 51 50 50 49 49 48 47 46 45 44 43 42 41 41 41 41 40 40 39 38 38 37 37 37 37 37 37 37 37 37 36 36 36 36 37 37 39 40 41 42 42 43 44 45 45 47 48 49 50 52 54 56 57 58 58 58 58 59 60 60 61 63 64 65 67 68 69 70 71 72 72 73 75 76 76 77 78 79 80 82
48 49 49 50 50 50 50 49 48 47 46 46 45 44 43 42 41 40 39 38 37 38 38 38 37 37 36 35 36 36 35 36 36 36 36 35 35 35 35 34 34 34 35 35 36 37 38 39 40 40 41 42 43 44 45 45 46 47 49 50 51 51 51 51 51 52 52 52 53 55 56 58 59 59 60 61 63 65 66 67 68 69 71 72 73 74 76 78
48 48 48 48 48 48 47 46 45 44 43 42 41 41 40 40 39 38 37 36 36 37 37 37 37 37 36 36 36 36 36 36 36 36 36 35 35 35 35 35 34 34 34 34 35 35 35 36 37 38 39 40 41 42 42 42 43 44 46 46 46 47 46 45 45 46 46 45 46 48 50 52 51 51 53 55 57 58 59 61 63 65 67 68 69 71 72 74
47 46 46 45 45 44 44 43 42 41 40 39 39 39 39 38 37 37 37 36 36 36 37 37 38 37 37 37 37 36 36 36 37 37 36 36 36 36 36 36 36 35 35 35 35 35 35 35 36 37 37 38 39 39 40 40 41 42 43 43 43 43 42 41 41 41 42 42 42 42 44 47 46 45 47 50 51 52 54 56 58 60 61 63 64 66 67 69
44 43 43 42 42 41 41 40 39 39 38 38 37 37 37 37 37 37 37 37 37 37 38 38 38 38 38 38 37 37 37 38 38 38 37 37 38 38 38 38 37 37 37 37 36 36 36 37 37 37 37 37 38 38 38 39 40 40 40 41 41 41 41 40 40 40 40 40 40 39 41 43 42 40 42 45 47 47 49 51 52 53 55 56 57 59 61 63
40 40 40 39 39 39 38 38 38 37 37 37 36 36 37 37 37 38 38 38 38 38 39 39 39 38 39 39 38 39 39 39 39 39 39 39 39 39 39 39 39 39 38 38 38 38 39 39 38 38 37 37 37 38 38 39 40 40 41 41 41 41 41 41 40 40 40 39 39 38 39 41 39 37 38 40 42 43 44 46 47 48 49 49 50 52 53 55
38 37 37 37 36 36 36 36 36 36 36 36 36 36 37 37 38 38 39 39 39 39 39 39 39 39 39 40 40 40 40 40 40 40 40 40 40 40 40 40 40 40 40 40 41 41 41 41 40 38 37 38 39 40 40 40 41 41 41 42 42 42 42 41 41 41 40 40 40 39 39 39 37 35 35 36 38 39 39 40 42 43 43 43 44 45 46 48
35 35 34 34 34 34 34 34 35 35 35 36 36 36 37 38 38 39 39 39 40 40 40 40 39 39 40 40 40 40 40 41 40 40 40 40 40 40 41 41 41 41 41 42 43 44 44 43 41 39 39 41 42 42 42 42 42 42 43 43 43 43 43 42 41 41 40 40 40 39 39 39 37 34 34 35 35 36 36 36 37 38 38 38 39 40 41 42
33 33 33 33 33 33 33 33 34 34 35 36 36 36 37 38 38 39 39 39 40 40 39 39 39 39 40 40 40 40 41 41 41 40 40 40 40 40 40 40 40 40 41 42 43 44 44 43 41 40 42 43 44 44 44 44 44 44 45 45 45 45 44 42 41 41 41 41 41 40 40 40 38 36 35 36 36 35 34 34 35 35 34 34 35 36 37 37
33 33 33 33 33 33 33 34 34 35 35 36 36 37 37 38 38 38 38 39 39 39 39 39 39 40 40 40 40 40 41 41 40 40 39 39 38 38 38 38 38 38 39 40 41 43 43 42 41 42 43 44 45 45 45 46 46 46 46 46 46 46 44 43 42 42 42 43 43 42 42 42 40 38 37 38 38 37 35 34 34 33 32 32 33 34 33 33
34 34 34 34 34 33 34 34 35 35 35 36 37 37 37 37 38 38 38 38 39 39 38 38 39 39 40 39 39 40 40 40 39 39 38 37 37 36 36 36 36 36 37 38 39 41 41 39 39 41 42 43 44 45 46 47 47 47 47 47 47 46 45 44 43 43 44 44 44 44 43 43 43 41 40 40 40 40 38 37 36 34 33 33 33 33 32 31
35 35 35 35 34 34 34 35 35 35 36 36 37 37 36 36 36 37 37 37 37 37 37 37 37 37 38 38 38 38 39 39 38 38 37 37 36 36 35 35 34 34 35 36 38 39 37 36 37 38 39 40 41 42 44 45 45 46 46 47 47 46 45 45 45 44 44 44 45 44 44 45 45 45 44 42 42 42 41 39 39 37 35 33 32 33 32 32
36 35 36 35 35 35 35 36 36 36 36 36 37 36 36 35 35 36 36 36 36 36 36 36 36 36 36 36 37 37 38 38 38 38 37 37 37 36 35 35 34 34 35 36 38 37 36 35 35 35 36 37 38 40 41 41 42 43 44 45 45 45 45 45 45 45 45 44 45 45 45 46 47 47 47 46 45 44 43 42 41 40 37 35 33 33 33 34
37 37 37 36 36 36 37 37 37 37 37 37 37 37 36 36 36 36 36 36 36 37 37 36 36 36 36 36 36 37 37 38 38 38 38 38 38 37 37 36 36 36 36 38 38 38 36 35 36 35 36 37 37 38 38 38 39 40 41 41 41 42 43 44 45 45 45 44 44 45 45 46 47 49 49 48 48 46 45 44 43 41 39 38 37 36 36 37
40 39 39 38 38 38 38 39 39 38 38 38 38 37 37 37 37 37 37 37 38 38 38 38 38 38 37 38 38 38 38 38 38 39 38 39 39 39 39 38 38 38 38 39 40 39 38 37 37 37 38 39 39 39 38 38 38 39 39 39 39 39 39 40 41 42 43 43 44 45 45 45 47 51 51 50 49 48 46 45 44 42 41 41 41 41 41 42
43 42 42 41 40 40 40 40 40 40 40 40 39 39 39 39 39 39 39 40 40 40 41 41 41 40 40 40 40 40 41 40 40 41 40 41 41 40 40 40 40 39 40 41 41 41 41 39 39 40 41 41 41 41 41 40 41 41 40 39 39 38 38 38 39 39 40 41 43 45 45 45 46 50 52 50 49 48 47 46 45 44 44 44 44 44 45 46
44 44 44 44 43 42 42 42 42 42 42 42 42 42 41 41 41 41 42 43 43 43 43 43 43 43 43 43 43 43 42 42 42 43 43 43 43 43 42 41 41 41 41 42 43 43 43 43 42 43 44 44 44 43 43 43 43 44 43 42 42 41 40 40 39 39 38 39 41 42 42 42 43 47 51 51 49 49 48 48 47 46 46 45 46 47 48 49
45 45 45 45 44 44 43 43 44 43 44 44 44 44 44 44 44 44 45 45 45 45 45 44 45 45 45 45 45 45 44 44 45 45 45 45 45 45 44 43 43 43 43 43 44 44 45 45 45 45 46 47 46 46 46 46 46 46 46 45 45 43 43 42 42 42 40 40 42 41 39 40 41 45 49 49 50 50 50 49 48 47 47 47 47 48 49 50
47 46 46 46 46 46 45 45 45 45 45 45 45 46 46 46 46 47 47 47 47 47 47 46 47 47 47 47 47 47 47 47 48 47 47 47 47 46 46 46 45 45 45 45 46 46 46 46 46 47 47 48 47 48 48 48 48 48 48 47 47 46 45 45 45 45 44 44 44 43 41 40 41 44 46 47 48 49 49 49 49 48 49 49 49 49 50 51
49 48 48 48 48 48 47 47 47 46 47 47 47 48 48 48 49 49 49 49 49 49 49 48 49 49 50 50 50 49 49 50 50 50 50 50 49 48 48 47 47 47 47 47 47 48 47 47 47 48 48 48 48 49 49 49 49 49 49 49 49 49 48 49 49 48 47 47 47 46 45 44 44 45 46 46 47 48 49 48 48 48 50 50 50 50 51 52
51 51 51 50 50 50 50 49 49 48 49 49 49 49 49 50 50 50 50 50 50 51 50 50 51 51 52 52 52 52 52 53 53 52 52 52 51 50 49 49 49 49 49 49 49 49 49 49 49 49 49 49 49 49 49 49 49 50 50 50 50 50 50 51 51 50 50 50 49 49 48 48 48 48 48 48 48 49 50 50 49 49 50 50 50 50 51 52
53 53 53 52 52 52 52 51 51 51 50 51 51 51 51 52 52 52 51 52 52 52 52 52 53 53 53 54 54 54 54 54 54 54 53 53 52 51 50 50 50 50 50 49 50 51 51 50 50 50 50 50 51 51 50 50 50 51 51 51 51 52 52 52 52 52 52 51 50 50 50 50 51 51 51 50 50 51 52 53 53 52 53 52 52 51 51 52
54 54 54 54 54 54 54 53 53 53 52 52 52 52 53 53 53 53 53 54 54 54 53 53 54 54 54 55 55 54 54 54 53 53 53 53 52 51 50 50 50 50 50 49 50 51 51 51 51 51 51 52 52 52 52 52 52 53 52 52 53 54 53 53 54 54 54 53 52 52 52 52 53 53 52 52 52 52 53 54 55 55 55 55 55 55 55 54
53 54 54 55 55 55 55 54 54 54 54 53 53 54 54 54 54 55 55 55 55 55 55 54 53 53 53 53 52 52 52 51 51 51 51 51 51 50 50 50 50 50 50 50 50 50 50 51 52 51 51 52 53 53 53 53 54 54 54 54 55 55 55 55 56 56 56 55 54 54 54 54 54 55 54 54 54 54 54 55 56 57 57 58 58 58 58 58
53 53 54 54 54 54 54 55 55 55 55 54 54 54 55 55 55 56 55 55 55 54 53 52 51 50 50 50 50 50 50 49 49 50 49 49 49 49 49 49 49 50 50 50 50 50 50 51 52 52 51 52 52 53 54 54 55 55 56 56 56 56 56 56 57 57 56 56 55 56 56 56 55 56 56 56 56 56 56 57 57 58 59 59 60 60 60 60
53 54 54 55 54 53 53 54 54 54 54 54 54 54 54 54 54 55 54 53 53 52 51 49 48 48 48 49 49 49 49 48 48 49 48 48 48 48 48 49 49 49 50 50 50 50 50 50 52 52 52 53 53 54 54 55 55 56 56 56 56 56 55 55 55 55 55 55 55 55 56 55 55 56 56 56 57 57 57 58 58 59 59 60 61 61 61 61
51 53 54 55 54 54 54 54 53 54 53 53 53 53 52 52 53 53 52 51 51 50 49 48 48 48 48 49 49 49 49 49 48 48 48 47 47 48 48 48 49 49 50 50 50 50 50 50 52 53 54 54 54 54 55 55 54 54 54 54 54 54 54 53 53 52 52 52 52 53 53 52 53 54 53 54 55 55 55 56 56 57 58 59 60 61 61 61
47 49 51 52 53 53 53 54 54 54 54 54 53 53 52 52 52 52 51 51 50 50 50 49 49 49 49 49 49 50 50 49 49 49 48 48 47 47 47 48 49 50 50 50 51 51 51 51 52 53 54 54 54 54 54 54 54 54 53 52 52 51 51 51 50 50 50 50 50 49 48 48 49 50 50 51 51 52 51 52 52 53 54 55 56 57 58 59
42 44 47 48 49 50 51 52 53 54 54 54 54 53 53 53 53 53 52 52 51 51 51 51 50 50 50 50 50 50 50 50 50 49 49 48 48 48 48 49 50 51 51 52 52 52 52 52 51 51 52 52 52 52 52 53 53 53 53 53 52 52 51 49 48 47 48 48 47 46 45 45 46 47 48 49 49 50 50 50 50 51 51 52 53 53 54 55
37 39 42 43 44 45 47 48 50 51 52 53 53 53 53 53 54 53 53 53 53 52 52 52 52 51 51 51 51 51 51 51 51 50 50 49 49 49 50 50 52 53 53 53 53 52 52 51 50 50 51 51 51 51 51 51 52 52 53 53 53 52 52 51 49 48 47 46 46 45 44 44 45 47 48 49 49 50 50 50 50 50 50 50 51 52 52 53
32 34 37 38 40 41 43 44 46 48 49 50 51 51 52 52 53 53 54 54 54 53 53 53 53 52 52 52 51 51 51 51 51 51 51 51 51 52 52 52 53 53 53 53 52 52 51 51 50 50 50 51 51 51 51 51 51 51 52 53 53 53 53 53 52 51 49 47 47 47 45 44 46 48 49 49 51 51 51 51 51 51 51 51 51 52 53 53
30 31 33 34 35 36 38 41 43 45 46 47 48 48 49 49 51 52 53 53 54 53 53 53 53 53 53 53 52 52 52 52 52 52 53 53 53 54 54 54 54 53 53 52 52 51 52 51 51 50 50 51 51 51 51 51 51 51 52 53 53 54 55 54 53 53 51 49 50 50 48 47 49 49 50 51 52 53 54 54 54 54 53 54 54 54 54 54
31 31 31 32 32 33 34 36 39 41 43 44 45 45 46 47 48 49 50 51 51 52 52 53 53 53 53 53 53 53 53 54 54 53 54 55 55 54 54 54 54 53 53 53 52 52 52 52 52 51 51 51 51 51 51 50 50 51 52 53 54 55 55 55 55 54 52 51 51 51 51 52 52 52 53 54 54 54 56 56 57 57 57 57 58 58 58 57
30 31 31 32 32 32 33 34 36 37 38 40 41 42 43 44 45 46 47 48 49 50 51 51 52 52 53 53 54 54 54 54 55 54 54 55 55 54 54 54 54 54 54 54 53 53 52 52 53 53 52 51 51 51 51 51 51 51 52 53 54 55 55 55 55 54 54 53 51 52 54 54 54 56 57 57 57 57 57 58 59 60 60 60 61 62 62 61
30 30 31 32 32 32 33 34 35 36 37 37 38 39 41 42 42 43 44 45 46 47 49 49 50 51 52 52 53 53 53 53 54 54 54 54 54 54 54 54 54 54 54 54 54 54 53 53 53 53 53 52 51 51 51 51 52 52 53 54 54 55 55 55 56 56 57 56 54 55 58 56 57 60 60 60 61 60 59 60 60 61 62 62 63 64 66 66
33 32 32 32 32 32 33 33 35 36 36 37 38 39 40 41 41 41 41 42 43 44 46 47 48 49 49 50 51 51 52 52 52 53 53 54 54 53 54 54 54 54 54 54 54 54 53 53 53 54 53 52 52 51 51 52 53 53 54 55 56 56 56 56 58 59 60 59 58 60 61 59 59 62 63 63 63 62 62 63 63 63 63 63 64 65 66 67
36 35 35 34 34 34 34 34 34 35 36 37 38 39 40 41 41 41 41 41 42 43 44 45 45 46 47 48 49 49 50 50 51 52 53 53 54 54 54 53 53 53 53 54 54 54 54 53 54 54 54 54 54 54 54 55 55 54 55 57 58 59 59 60 62 63 64 63 62 63 63 60 62 66 67 67 66 65 65 65 65 65 65 65 66 66 66 67
39 39 38 37 37 37 37 36 37 37 37 37 37 38 39 40 40 40 41 41 42 43 44 45 45 46 47 47 47 48 49 50 51 52 53 53 53 53 53 52 52 52 53 54 55 55 55 55 55 56 56 55 57 58 58 58 57 56 57 59 61 62 64 65 65 66 66 65 65 66 64 60 63 70 71 69 68 68 68 68 67 67 67 68 68 68 68 69
42 42 42 41 40 40 40 39 39 39 40 40 40 40 41 41 40 40 40 41 41 42 43 44 45 46 46 47 48 49 49 50 51 51 51 51 51 51 52 52 52 53 54 56 56 57 58 58 58 59 58 57 60 62 63 63 61 58 58 62 65 66 67 67 67 68 69 68 68 68 64 61 66 72 71 68 69 70 70 70 69 69 69 69 70 70 70 70
45 45 45 45 44 44 44 43 42 42 42 42 43 43 43 44 43 43 42 42 43 43 43 43 44 45 45 46 47 48 48 49 49 50 50 50 51 51 52 53 54 55 56 58 59 60 61 62 62 63 62 60 62 65 66 67 64 60 62 67 68 68 68 68 68 69 70 71 70 68 66 65 69 72 72 70 70 70 71 71 71 71 72 71 71 71 71 71
Wind_Direction
255 256 256 257 257 258 258 259 259 260 260 261 261 262 262 263 263 263 264 264 264 264 264 264 264 264 264 264 264 264 264 264 264 264 263 263 263 262 262 261 261 260 260 260 259 259 259 259 259 259 260 260 260 260 261 261 261 261 261 261 261 261 262 262 263 263 264 265 265 265 266 266 266 267 267 267 267 267 268 268 269 269 270 270 270 271 271 272
256 256 257 257 258 258 259 260 260 261 261 261 262 262 262 263 263 263 263 263 263 263 263 264 264 264 264 265 265 265 265 265 265 265 265 264 264 264 263 262 262 261 261 260 260 259 259 259 259 259 259 259 260 260 260 260 261 261 261 261 261 261 262 262 263 263 263 263 263 264 264 265 265 266 266 266 266 266 267 267 268 268 269 269 270 270 271 271
256 257 257 258 258 259 260 260 261 261 261 261 262 262 262 262 262 262 262 262 263 263 263 263 264 264 265 265 265 266 266 266 267 267 266 266 265 265 264 263 262 262 261 260 260 259 259 259 259 259 259 259 260 260 260 260 260 260 260 260 260 261 261 261 262 262 262 262 263 263 263 264 264 265 265 266 266 266 266 266 267 268 268 269 269 270 270 270
257 257 258 259 259 260 260 261 261 261 261 262 262 262 262 262 262 262 262 262 262 263 263 264 264 265 265 265 266 267 267 267 268 267 267 267 266 265 265 264 263 262 262 261 260 260 259 259 259 259 259 259 259 259 259 259 259 259 259 259 259 260 260 260 261 261 261 262 262 262 263 263 263 264 264 265 265 265 265 266 266 267 268 268 268 269 269 269
257 258 259 260 260 260 261 261 261 262 262 262 262 262 262 262 262 262 262 262 263 263 264 264 265 265 265 266 267 267 268 268 268 268 268 268 267 267 266 265 264 263 262 261 261 260 260 259 259 259 259 259 259 258 258 258 258 258 258 258 259 259 259 260 260 261 261 261 261 262 262 262 263 263 263 264 264 265 265 266 266 267 267 267 268 268 269 270
258 258 259 260 260 261 261 261 262 262 262 262 262 262 262 262 262 262 263 263 263 264 264 265 265 265 266 267 267 268 268 268 268 268 268 268 268 267 266 266 265 264 263 262 261 261 260 260 259 259 258 258 257 257 257 257 257 257 257 258 259 259 260 260 260 261 260 261 261 261 261 261 262 262 262 263 263 264 265 265 266 266 266 267 267 268 269 270
257 258 259 259 260 260 261 261 261 261 261 261 261 261 261 262 262 262 263 263 264 264 264 265 265 266 266 267 268 268 268 269 269 269 268 268 268 267 267 266 265 264 264 263 262 261 260 260 259 258 257 257 256 257 257 257 257 257 258 259 259 259 260 260 260 260 259 259 260 260 260 260 261 261 261 262 262 263 264 264 265 266 266 266 267 268 269 270
257 257 258 258 259 259 260 260 260 260 260 260 260 261 261 261 262 263 263 263 264 264 265 265 266 266 267 267 268 268 268 268 269 269 269 268 268 267 267 266 265 265 264 263 262 261 260 259 258 257 257 257 257 257 257 256 256 257 258 258 258 258 258 258 258 258 258 259 259 259 260 260 260 261 261 261 262 262 263 263 264 265 265 266 267 268 268 269
256 256 257 257 258 258 258 258 259 259 260 260 261 262 262 263 263 263 264 264 265 265 265 266 266 267 267 268 268 268 268 268 268 268 268 268 267 267 266 266 265 264 263 262 261 260 259 259 258 258 257 257 257 256 256 255 256 256 257 257 257 257 257 257 258 258 258 258 259 259 260 260 260 260 261 261 261 262 262 263 264 265 265 266 266 266 267 268
255 255 256 256 257 258 258 259 260 261 261 262 262 263 263 263 264 264 264 264 265 265 265 266 266 266 266 267 267 267 267 267 267 267 267 267 267 266 266 265 264 264 263 262 261 260 259 259 258 257 257 256 256 255 255 255 256 256 256 256 256 256 257 257 257 258 258 259 259 260 260 260 260 260 260 261 261 262 262 263 263 264 264 264 265 265 266 267
255 255 256 257 258 259 260 261 261 262 263 263 264 264 264 264 264 264 264 264 264 264 264 264 265 265 265 265 265 265 266 266 266 266 266 266 266 266 265 265 265 264 263 262 261 260 259 258 258 257 257 256 256 256 256 257 257 257 257 257 257 257 257 257 258 258 259 259 260 260 261 261 260 260 261 261 261 262 262 262 263 263 264 264 265 266 266 267
256 256 257 258 260 260 261 262 263 263 264 264 264 264 263 263 263 262 262 262 262 262 262 263 263 263 263 263 263 263 263 264 264 265 266 266 266 266 266 265 265 265 264 263 262 261 260 259 258 258 257 257 257 257 257 257 257 257 257 257 257 258 258 259 259 260 260 260 261 261 261 261 261 262 262 262 263 263 263 263 264 264 265 265 266 266 267 267
257 258 259 260 260 261 262 262 263 263 263 263 263 262 262 261 260 260 259 259 259 260 260 261 262 262 261 260 260 261 262 263 263 264 265 266 267 267 267 267 266 265 265 264 263 262 261 260 259 258 258 257 257 257 257 257 257 258 258 258 259 259 260 260 261 261 261 261 261 261 261 262 262 263 263 264 264 264 264 264 264 265 265 265 265 266 266 266
258 258 259 260 261 261 262 262 262 262 262 261 260 260 259 258 257 257 257 257 258 259 259 260 260 259 259 258 259 260 261 262 263 263 264 265 266 266 266 266 266 266 265 264 264 263 262 261 260 259 259 258 257 257 257 258 258 259 260 261 261 261 261 261 261 261 261 261 261 261 262 262 263 264 264 264 263 263 263 264 264 264 264 264 264 264 265 265
257 258 259 260 260 261 261 261 261 260 259 258 257 257 256 255 255 256 255 256 258 258 258 258 258 257 257 258 259 260 260 262 262 262 263 263 263 263 263 263 263 264 264 264 264 264 264 263 262 261 260 258 258 258 258 259 259 260 261 262 262 261 261 260 260 260 260 260 260 261 262 263 263 264 264 264 264 264 264 264 263 263 263 263 263 264 264 265
257 258 258 259 259 259 259 259 258 257 256 255 254 254 254 255 255 256 255 256 258 258 257 257 256 257 258 258 259 260 261 261 262 262 262 262 262 262 261 262 262 262 262 262 263 263 263 263 262 261 260 259 259 260 260 260 260 260 260 260 260 259 259 258 257 258 258 259 259 261 262 263 263 264 265 264 264 264 264 264 264 264 264 265 265 265 265 265
256 257 257 257 257 257 256 256 255 254 253 253 253 253 254 255 256 256 255 256 258 257 256 256 257 258 259 259 260 261 261 262 262 263 263 263 262 262 262 262 262 261 262 262 262 262 261 261 260 260 260 261 262 262 261 260 259 258 257 257 257 257 256 256 256 256 257 258 259 259 261 262 263 263 264 265 264 264 264 264 264 264 265 266 267 267 267 267
254 255 255 255 255 254 254 253 253 253 253 253 253 254 255 255 255 256 256 256 257 257 257 257 257 258 259 261 261 261 262 263 264 264 264 263 263 262 262 261 261 261 261 261 261 260 259 259 259 259 261 262 262 261 259 258 256 255 255 255 255 256 255 256 256 256 257 258 259 259 260 262 263 262 263 265 266 264 264 264 264 265 266 267 268 268 269 269
252 253 253 253 253 253 253 253 253 253 253 253 253 254 254 254 254 255 255 256 257 257 257 258 259 259 260 261 262 262 263 264 264 264 264 263 263 263 262 262 261 260 260 259 259 258 257 257 258 259 261 261 259 258 257 256 256 255 255 255 255 255 255 256 257 257 258 259 259 260 260 262 262 262 263 264 266 266 266 267 267 267 267 267 268 268 269 270
251 251 251 252 252 252 253 254 254 254 254 253 253 253 253 254 254 255 255 257 257 258 259 259 260 260 260 261 262 263 264 264 264 264 264 264 264 264 263 262 261 260 259 258 258 257 257 257 258 259 259 258 257 257 257 257 257 256 256 256 255 255 255 256 257 258 259 259 259 259 260 260 260 260 261 263 265 266 267 268 269 269 270 270 269 269 269 271
250 250 250 251 252 252 254 255 255 254 254 253 253 252 253 254 255 256 257 258 259 260 260 261 261 262 262 262 263 264 264 265 265 265 265 265 264 264 263 262 261 260 259 258 258 258 258 258 258 258 256 256 257 258 258 258 258 257 257 256 256 256 256 256 257 258 259 259 259 259 259 259 259 257 258 260 262 264 266 268 269 270 272 272 272 272 272 274
249 249 249 250 251 252 253 254 255 254 254 253 253 253 253 255 256 257 258 259 260 260 261 261 262 262 262 263 263 264 264 265 266 266 265 265 264 263 262 262 261 259 259 258 258 258 258 258 258 257 256 257 257 258 258 259 259 259 259 259 258 258 258 258 258 257 258 259 259 260 260 259 258 256 255 257 259 261 263 265 267 270 271 271 272 274 275 277
249 249 250 250 251 252 253 254 254 255 255 254 254 255 255 256 257 258 258 259 260 260 261 261 261 262 262 263 263 263 263 264 265 265 265 264 263 262 262 261 261 260 260 259 258 258 259 259 258 258 258 258 258 259 259 259 259 260 260 261 261 261 260 259 258 258 258 259 259 260 261 261 259 257 255 255 258 259 260 261 263 266 268 270 273 275 277 279
249 249 250 251 252 253 254 254 254 255 255 255 255 256 256 257 257 258 258 259 260 261 261 261 261 261 262 262 262 263 263 263 264 264 264 264 263 262 262 261 261 261 260 259 258 259 259 259 259 259 259 259 259 260 259 260 260 260 261 261 262 262 262 261 260 258 258 259 260 260 261 261 261 259 256 254 255 257 258 259 260 262 264 268 272 275 278 278
249 250 251 252 253 254 254 254 255 255 254 255 255 256 256 257 257 258 258 259 260 261 261 261 261 262 262 263 263 263 262 263 263 264 264 263 262 262 261 261 261 260 260 260 260 261 261 260 260 259 260 259 259 259 260 260 261 261 261 261 262 262 262 261 260 259 258 258 259 260 260 260 261 260 259 256 255 255 257 258 259 261 263 265 266 268 269 270
249 250 251 252 253 254 254 255 255 255 255 255 255 256 257 257 258 258 259 260 261 262 262 263 263 263 264 264 264 264 263 263 263 263 263 263 263 262 261 261 260 260 260 261 262 262 262 262 262 261 261 261 260 260 261 261 262 262 262 262 262 262 261 261 261 260 260 259 259 259 259 259 260 260 259 258 258 257 257 258 259 260 261 261 260 258 258 259
251 251 251 252 252 253 254 255 255 256 255 255 255 256 257 257 258 259 260 262 262 263 264 265 265 266 266 266 265 265 264 263 263 262 262 262 262 262 262 261 261 261 261 262 262 263 262 262 262 262 262 261 261 262 262 263 263 263 263 264 263 263 262 262 262 262 261 260 259 257 257 257 259 261 260 259 260 260 259 259 259 259 259 258 258 257 256 255
253 253 253 253 252 252 253 254 255 255 256 256 256 256 257 258 259 260 262 263 264 265 266 267 268 268 267 267 266 266 265 264 264 263 262 262 262 262 262 262 262 262 262 263 263 263 263 262 262 262 261 261 261 262 263 263 263 264 264 264 264 264 264 264 264 263 262 261 259 258 257 257 258 261 263 262 261 260 260 259 259 258 257 257 257 257 257 256
254 255 255 255 254 254 253 253 254 255 255 256 256 257 258 259 260 261 262 264 265 266 267 268 269 269 268 267 267 267 267 267 267 266 265 264 263 263 262 262 262 262 262 263 263 263 263 262 261 261 261 262 262 262 263 263 263 263 264 263 264 264 264 265 265 264 263 262 261 260 260 259 258 260 262 263 262 261 260 259 258 258 257 257 257 257 257 257
254 255 255 255 255 255 254 254 254 255 255 256 256 257 258 259 260 262 263 264 265 266 267 267 268 268 268 268 269 269 269 269 268 268 267 266 265 264 264 263 263 262 261 262 262 262 263 263 262 261 261 262 262 262 263 263 263 263 264 264 264 264 265 265 264 264 263 263 263 263 262 262 260 260 262 263 264 263 262 261 260 259 258 258 257 257 258 258
254 255 255 256 256 255 255 255 255 255 255 256 256 257 258 259 260 262 263 264 265 266 266 267 267 267 268 268 269 269 269 269 269 269 269 268 267 266 265 264 264 263 262 262 262 262 262 262 263 262 262 262 262 262 262 262 263 264 264 265 265 265 265 264 264 263 263 263 264 264 264 263 262 262 263 264 265 266 265 264 263 261 260 259 258 258 258 259
254 255 255 256 256 257 256 256 256 256 256 257 257 258 259 260 261 262 263 263 264 265 266 266 267 267 268 268 269 269 269 269 269 269 269 269 268 267 266 265 265 264 264 263 263 264 263 263 264 264 263 263 263 263 263 263 264 264 265 265 265 265 265 265 264 264 264 264 264 265 265 264 263 262 263 264 265 266 267 266 265 264 263 261 260 259 259 260
254 255 255 256 256 257 257 257 257 257 257 258 258 259 260 261 261 262 263 263 264 265 266 266 267 267 268 268 268 269 269 269 269 269 269 268 268 267 266 265 265 264 264 264 264 264 264 264 265 265 265 266 265 265 265 265 265 266 266 266 266 266 265 265 265 265 265 264 265 265 264 264 263 262 261 261 262 264 266 266 266 265 265 264 263 262 261 261
256 256 256 256 256 257 257 257 258 257 258 258 259 260 260 261 262 262 263 263 264 265 266 266 267 268 268 269 269 269 269 269 269 268 268 267 266 266 265 265 264 264 264 264 264 264 265 265 265 265 266 267 267 267 267 267 267 267 267 267 267 267 266 266 267 266 266 265 265 265 265 264 263 262 261 260 260 261 263 264 265 265 265 265 265 264 263 262
256 256 257 257 257 257 257 258 258 258 258 259 260 260 261 261 262 263 263 264 264 265 266 267 268 269 269 270 270 270 269 268 268 267 266 265 265 264 264 263 263 263 263 263 264 264 265 266 266 266 267 267 268 268 268 268 268 267 267 267 267 267 267 267 267 267 266 266 265 265 264 264 263 263 262 261 261 260 261 262 263 263 264 264 264 263 263 262
257 257 257 257 257 258 258 258 259 259 259 259 260 260 261 262 263 263 264 264 265 266 267 267 268 269 269 269 268 268 268 267 266 265 265 264 264 264 263 263 263 263 263 263 263 264 265 266 267 267 268 269 270 270 270 270 270 270 269 268 268 268 268 267 267 267 267 267 266 265 264 263 263 263 263 262 262 261 260 260 261 261 262 262 262 262 262 262
257 257 258 258 258 258 258 259 259 259 260 260 260 261 261 262 263 263 264 265 265 266 267 267 267 267 267 266 266 266 266 266 266 265 264 264 264 263 263 263 263 263 263 263 263 264 265 266 267 267 267 268 269 270 270 271 271 271 270 270 269 269 269 269 268 268 268 267 266 266 265 264 263 263 263 262 262 261 260 259 259 260 260 261 261 261 261 262
256 257 258 258 258 259 259 260 260 260 260 260 260 260 261 261 262 263 263 264 265 265 265 265 265 264 264 264 265 265 265 265 265 265 264 264 264 264 264 264 264 264 264 264 265 265 266 267 268 269 269 268 268 268 269 270 270 270 271 270 270 270 269 268 268 268 268 268 267 266 266 265 264 264 263 263 262 261 260 260 259 260 260 261 261 262 262 262
256 257 257 258 259 259 259 260 260 260 260 260 260 260 260 261 261 262 263 263 263 263 263 263 263 262 262 263 263 264 264 264 264 264 265 265 264 265 265 265 265 265 266 266 267 267 268 268 270 271 271 271 270 269 269 269 269 269 269 270 270 270 269 268 268 268 268 268 267 267 267 267 266 265 264 263 263 262 261 261 260 260 260 261 262 263 263 263
257 257 258 258 258 259 259 259 260 260 260 260 260 260 260 260 261 261 262 262 262 262 262 262 261 261 262 262 263 263 264 264 265 265 265 265 265 265 265 266 266 266 267 268 268 269 269 270 270 271 272 272 272 272 272 271 271 270 269 269 269 269 269 269 269 269 269 269 268 268 268 269 268 267 266 264 263 263 262 261 260 260 259 259 260 261 262 263
260 259 259 259 259 259 260 260 260 260 260 260 260 260 260 260 261 261 261 261 261 261 261 261 261 261 261 262 262 263 264 264 265 265 265 265 265 265 265 266 267 268 269 269 269 270 270 270 270 271 271 272 272 273 273 274 274 274 273 273 272 271 270 270 270 270 270 270 270 270 270 270 270 269 268 266 265 264 263 262 261 260 259 259 259 259 260 261
264 262 261 261 261 261 261 261 261 261 261 261 260 260 260 260 260 261 261 261 261 261 261 261 261 261 261 262 262 263 264 264 264 264 264 264 264 265 265 266 268 269 270 270 270 270 270 270 269 269 270 271 271 272 273 273 274 275 275 276 276 276 275 274 273 271 270 269 270 269 268 268 269 268 267 267 266 266 265 264 263 262 261 261 260 260 260 261
266 265 264 264 263 263 263 263 263 263 262 262 262 262 261 261 261 261 261 260 260 260 260 261 261 262 262 262 263 263 264 264 264 265 265 265 265 266 266 267 268 268 269 269 269 269 269 268 268 268 268 269 269 270 270 271 271 272 273 274 275 275 275 275 275 275 274 273 272 270 269 267 266 266 266 267 267 267 267 266 265 264 263 262 262 262 262 262
267 266 266 265 264 264 263 263 263 264 264 264 264 264 263 262 262 261 260 260 260 260 261 261 261 262 262 262 262 263 263 264 264 265 266 266 266 267 267 268 268 268 267 267 267 267 266 266 266 266 266 266 267 268 268 268 269 270 270 271 271 272 272 273 273 274 274 275 274 274 272 269 266 265 265 265 265 266 267 267 267 266 266 265 264 263 262 262
271 269 267 266 265 264 264 263 263 263 264 264 265 265 264 263 262 261 261 261 261 261 261 261 261 261 262 262 263 263 263 264 264 265 266 267 267 267 268 267 267 267 266 266 266 266 266 266 266 265 265 265 265 265 266 266 267 267 268 269 269 270 271 272 272 272 272 271 271 271 271 270 268 267 265 263 262 262 263 264 266 267 267 267 266 265 263 263
271 271 270 268 267 265 264 263 262 263 263 264 264 264 264 263 262 262 262 262 261 261 261 261 261 261 262 263 263 263 264 265 265 265 266 266 267 267 267 267 266 266 266 266 266 266 266 266 266 265 265 264 264 265 266 267 267 267 267 268 268 269 270 271 272 272 271 270 269 269 267 266 267 266 265 264 263 262 261 262 263 264 265 266 267 268 267 266
267 268 269 270 269 267 266 264 264 264 264 264 264 264 264 263 263 263 263 262 262 261 261 261 261 261 262 263 263 264 264 265 266 266 266 266 266 266 266 266 267 267 267 267 267 266 266 265 266 266 267 267 267 267 269 270 270 270 269 268 268 268 269 271 272 272 272 271 270 269 267 266 266 266 266 266 266 265 265 264 263 263 264 265 266 267 268 269
264 264 265 267 268 268 267 265 265 264 264 264 264 263 263 263 263 263 263 263 263 262 262 262 261 262 262 262 263 264 264 265 265 265 266 266 266 266 266 266 267 268 268 268 267 267 267 268 268 269 270 271 271 271 271 270 270 270 270 271 270 271 271 272 272 272 271 271 270 269 269 270 270 270 269 268 267 267 266 265 265 264 264 264 264 265 266 268
263 263 263 263 264 264 265 265 265 264 264 263 263 263 263 263 264 264 264 263 263 263 263 263 263 263 262 262 262 263 263 264 264 264 265 265 266 266 267 267 267 267 268 268 268 269 270 270 271 271 272 273 273 272 272 271 270 271 272 273 274 275 274 273 271 271 270 271 271 270 271 272 273 272 270 269 268 267 266 266 265 265 264 263 263 263 264 264
265 264 263 262 262 261 262 263 264 264 264 263 262 262 262 263 263 264 263 262 262 262 263 263 263 263 263 263 262 262 262 262 262 263 264 264 265 266 266 267 267 267 268 268 269 270 271 271 271 271 272 273 274 273 273 272 272 273 274 275 275 274 273 272 272 272 272 273 272 271 271 272 272 270 269 269 269 268 267 266 265 264 264 263 263 262 262 262
266 266 265 264 263 262 261 261 262 263 263 264 263 263 263 262 262 262 262 262 262 261 261 262 262 262 263 263 263 262 262 262 262 262 263 263 264 265 266 267 268 268 269 270 270 271 271 272 272 272 272 273 274 274 274 273 273 274 274 274 273 272 272 273 274 275 274 273 272 272 273 272 269 269 269 269 269 269 268 267 266 265 264 263 262 261 261 261
266 266 266 265 265 264 263 262 261 261 262 263 264 264 265 265 264 263 263 263 263 262 261 261 262 262 262 263 263 263 263 263 263 263 263 264 265 266 267 268 269 270 270 271 272 273 273 273 272 272 272 272 272 273 273 274 275 275 274 272 271 272 273 273 274 274 274 273 273 274 273 271 270 270 271 270 268 268 269 268 267 266 265 263 262 262 261 261